GPS BIIRM-1 (PRN 17)

Last updated on Mon Jun 30 2025 00:03:12 GMT+0000 (Coordinated Universal Time)

1 28874U 05038A 25180.34774490 -.00000065 00000+0 00000+0 0 9999 2 28874 55.1710 287.3962 0132695 290.2585 62.3534 2.00559417144751
UTC large
Height (km)
Speed (km/s)
/
Latitude / Longitude
Inclination (degrees)
Orbital Period (minutes)
Azimuth
Elevation
Range (km)
Doppler Factor

Next 0 passes for location: London (51.5072 / 0.1276)

Sorry there are no passes over London.